Location: Unspecified
(37.3333°N, 0.0000°E)
Time: 23:00:47
(UTC+00:00)

Tiangong 2 - Pass Details

Date: 31 May 2019
Orbit: 376 x 388 km, 42.8° (Epoch: 15 June)

Event Time Altitude Azimuth Distance (km) Brightness Sun altitude
Rises 21:11:32 0° 284° (WNW) 2,238 5.8 -19.0°
Reaches altitude 10° 21:13:54 10° 267° (W) 1,382 4.3 -19.3°
Enters shadow 21:15:44 20° 233° (SW) 946 3.0 -19.5°
